Location: Bonny Doon Airfield
(37.0704°N, 122.1252°W)
Time: 03:05:44
(UTC-07:00)

Vanguard 2 - All Passes

Search period start: 21 June 2018 00:00
Search period end: 01 July 2018 00:00
Orbit: 553 x 2939 km, 32.9° (Epoch: 20 June)

Date Brightness Start Highest point End Pass type
(mag) Time Alt. Az. Time Alt. Az. Time Alt. Az.
21 Jun - 02:50:53 10° SSW 02:56:58 21° SSE 03:01:24 10° ESE visible
21 Jun - 04:59:39 10° WSW 05:05:35 41° S 05:09:46 10° E visible
21 Jun - 07:09:12 10° W 07:13:35 47° S 07:17:23 10° ESE daylight
21 Jun - 09:18:12 10° WSW 09:21:19 22° SSW 09:24:45 10° SSE daylight
22 Jun - 01:02:46 10° S 01:05:41 11° SSE 01:08:16 10° SE night (unlit)
22 Jun - 03:07:57 10° SW 03:15:06 28° SSE 03:19:58 10° ESE visible
22 Jun - 05:17:38 10° WSW 05:23:37 49° S 05:27:49 10° E visible
22 Jun - 07:27:20 10° W 07:31:34 42° S 07:35:18 10° ESE daylight
22 Jun - 09:36:53 10° WSW 09:39:15 15° SSW 09:41:49 10° SSE daylight
23 Jun - 01:17:28 10° S 01:23:53 17° SSE 01:28:49 10° ESE visible
23 Jun - 03:25:27 10° SW 03:33:12 36° SSE 03:38:15 10° E visible
23 Jun - 05:35:44 10° WSW 05:41:39 53° S 05:45:49 10° ESE daylight
23 Jun - 07:45:32 10° W 07:49:31 34° SSW 07:53:06 10° SE daylight
24 Jun - 01:33:47 10° SSW 01:42:05 24° SSE 01:47:54 10° ESE visible
24 Jun - 03:43:14 10° WSW 03:51:18 45° SSE 03:56:24 10° E visible
24 Jun - 05:53:53 10° W 05:59:40 54° S 06:03:48 10° ESE daylight
24 Jun - 08:03:50 10° WSW 08:07:25 25° SSW 08:10:43 10° SE daylight
24 Jun - 23:45:10 10° S 23:50:13 13° SSE 23:54:32 10° SE night (unlit)
25 Jun - 01:50:46 10° SW 02:00:15 32° SSE 02:06:29 10° E visible
25 Jun - 04:01:13 10° WSW 04:09:22 52° S 04:14:27 10° E visible
25 Jun - 06:12:04 10° W 06:17:40 50° S 06:21:43 10° ESE daylight
25 Jun - 08:22:23 10° WSW 08:25:15 18° SSW 08:27:59 10° SSE daylight
26 Jun - 00:00:00 10° S 00:08:26 19° SSE 00:14:53 10° ESE visible
26 Jun - 02:08:11 10° SW 02:18:24 40° SSE 02:24:49 10° E visible
26 Jun - 04:19:20 10° WSW 04:27:26 58° S 04:32:28 10° E visible
26 Jun - 06:30:18 10° W 06:35:37 42° SSW 06:39:34 10° ESE daylight
26 Jun - 08:41:40 10° SW 08:43:04 11° SSW 08:44:25 10° S daylight
27 Jun - 00:16:10 10° SSW 00:26:38 26° SSE 00:34:02 10° ESE visible
27 Jun - 02:25:54 10° SW 02:36:31 48° SSE 02:42:58 10° E visible
27 Jun - 04:37:33 10° W 04:45:29 60° S 04:50:27 10° ESE visible
27 Jun - 06:48:36 10° W 06:53:31 33° SSW 06:57:17 10° SE daylight
27 Jun - 22:27:58 10° S 22:34:14 14° SSE 22:39:41 10° ESE visible
28 Jun - 00:33:01 10° SSW 00:44:49 34° SSE 00:52:42 10° E visible
28 Jun - 02:43:52 10° WSW 02:54:39 56° S 03:01:03 10° E visible
28 Jun - 04:55:49 10° W 05:03:32 59° S 05:08:24 10° ESE visible
28 Jun - 07:07:01 10° W 07:11:20 25° SSW 07:14:46 10° SSE daylight
28 Jun - 22:42:31 10° S 22:52:25 20° SSE 23:00:17 10° ESE visible
29 Jun - 00:50:18 10° SW 01:02:58 42° SSE 01:11:05 10° E visible
29 Jun - 03:02:00 10° WSW 03:12:46 62° S 03:19:05 10° E visible
29 Jun - 05:14:07 10° W 05:21:31 53° SSW 05:26:16 10° ESE visible
29 Jun - 07:25:45 10° WSW 07:29:03 17° SSW 07:31:52 10° S daylight
29 Jun - 22:58:27 10° SSW 23:10:35 27° SSE 23:19:37 10° E visible
30 Jun - 01:07:56 10° SW 01:21:08 50° SSE 01:29:18 10° E visible
30 Jun - 03:20:15 10° WSW 03:30:52 66° S 03:37:05 10° E visible
30 Jun - 05:32:26 10° W 05:39:28 45° SSW 05:44:05 10° SE daylight
30 Jun - 07:45:29 10° SW 07:46:43 11° SW 07:47:52 10° SSW daylight
30 Jun - 21:11:33 10° SSE 21:17:48 13° SE 21:23:29 10° ESE visible
30 Jun - 23:15:06 10° SSW 23:28:44 34° SSE 23:38:25 10° E visible
